This demonstration page uses our WeatherBlox Daily Observations layout. Learn more.

Left ArrowRight Arrow

39.51506, -84.39828

Hourly Observations for July 25, 2015

Temp ( °F °C ) Dew Point ( °F °C ) Humidity (%) Winds ( mph kmh ) Pressure ( in mb ) Visibility ( mi km ) Precip ( " mm )
12:15 am 00:15 Clear 69 20.8 65 18.1 85 85 N N/A 30.00 1016 10 16 N/A
12:35 am 00:35 Clear 67 19.5 62 16.8 84 84 N N/A 30.00 1016 10 16 N/A
12:55 am 00:55 Clear 67 19.5 63 17 86 86 N N/A 30.00 1016 10 16 N/A
1:15 am 01:15 Clear 67 19.5 63 17 86 86 N N/A 30.00 1016 10 16 N/A
1:35 am 01:35 Clear 64 18 60 15.6 86 86 N N/A 30.00 1016 10 16 N/A
1:55 am 01:55 Clear 64 18 60 15.6 86 86 N N/A 30.00 1016 10 16 N/A
2:15 am 02:15 Clear 64 18 60 15.7 87 87 N N/A 30.00 1016 10 16 N/A
2:35 am 02:35 Clear 64 17.5 60 15.3 87 87 N N/A 30.00 1016 10 16 N/A
2:55 am 02:55 Clear 64 17.5 60 15.3 87 87 N N/A 30.00 1016 10 16 N/A
3:15 am 03:15 Clear 63 17.3 59 15.1 87 87 N 3 6 30.00 1016 10 16 N/A
3:35 am 03:35 Clear 63 17 59 15 88 88 N N/A 30.00 1016 10 16 N/A
3:55 am 03:55 Clear 62 16.8 59 14.8 88 88 N N/A 30.00 1016 10 16 N/A
4:15 am 04:15 Clear 62 16.6 58 14.6 88 88 N N/A 29.97 1015 10 16 N/A
4:35 am 04:35 Clear 62 16.6 58 14.6 88 88 N N/A 29.97 1015 10 16 N/A
4:55 am 04:55 Clear 62 16.6 58 14.7 89 89 N N/A 29.97 1015 7 11 N/A
5:15 am 05:15 Clear 62 16.6 58 14.7 89 89 N N/A 29.97 1015 7 11 N/A
5:35 am 05:35 Clear 61 16.1 58 14.2 89 89 N N/A 30.00 1016 7 11 N/A
5:55 am 05:55 Clear 62 16.5 58 14.6 89 89 N N/A 30.00 1016 7 11 N/A
6:15 am 06:15 Clear 61 16.1 58 14.3 89 89 N N/A 30.00 1016 7 11 N/A
6:35 am 06:35 Sunny with Mist and Fog 61 16 57 14 88 88 N N/A 30.00 1016 3 4 N/A
6:55 am 06:55 Sunny 61 16 57 14 88 88 N N/A 30.00 1016 7 11 N/A
7:15 am 07:15 Sunny 62 16.6 58 14.7 89 89 N N/A 30.00 1016 7 11 N/A
7:35 am 07:35 Sunny with Mist and Fog 63 17.4 60 15.5 89 89 N N/A 30.00 1016 5 8 N/A
7:55 am 07:55 Sunny 65 18.4 62 16.4 88 88 N N/A 30.00 1016 7 11 N/A
8:15 am 08:15 Sunny 69 20.8 65 18.5 87 87 N N/A 30.00 1016 7 11 N/A
8:35 am 08:35 Sunny 69 20.8 64 18 84 84 N N/A 30.00 1016 10 16 N/A
8:55 am 08:55 Sunny 72 22.2 66 19 82 82 N N/A 30.00 1016 7 11 N/A
9:15 am 09:15 Sunny 74 23.6 67 19.6 78 78 N N/A 30.00 1016 10 16 N/A
9:35 am 09:35 Sunny 74 23.6 65 18.5 73 73 N N/A 30.00 1016 7 11 N/A
9:55 am 09:55 Sunny 77 25.1 62 16.6 59 59 SW 3 6 30.00 1016 10 16 N/A
10:15 am 10:15 Sunny 77 25.1 62 16.7 60 60 N N/A 30.00 1016 10 16 N/A
10:35 am 10:35 Sunny 80 26.5 63 17.3 57 57 WSW 3 6 30.00 1016 10 16 N/A
10:55 am 10:55 Sunny 80 26.6 63 17.3 57 57 WSW 3 6 30.03 1017 10 16 N/A
11:15 am 11:15 Sunny 80 26.5 62 16.8 55 55 WSW 7 11 30.03 1017 10 16 N/A
11:35 am 11:35 Sunny 81 27.3 62 16.4 51 51 SW 9 15 30.03 1017 10 16 N/A
11:55 am 11:55 Sunny 82 28 62 16.7 50 50 W 8 13 30.00 1016 10 16 N/A
12:15 pm 12:15 Sunny 82 28 61 16.2 49 49 WSW 6 9 30.00 1016 10 16 N/A
12:35 pm 12:35 Sunny 82 28 61 16.1 48 48 SW 8 13 30.00 1016 10 16 N/A
12:55 pm 12:55 Sunny 83 28.2 60 15.3 45 45 WSW 7 11 30.00 1016 10 16 N/A
1:15 pm 13:15 Sunny 83 28.5 60 15.7 46 46 SW 6 9 29.97 1015 10 16 N/A
1:35 pm 13:35 Sunny 83 28.6 60 15.3 44 44 WNW 3 6 29.97 1015 10 16 N/A
1:55 pm 13:55 Sunny 84 28.9 62 16.4 47 47 SW 8 13 29.94 1014 10 16 N/A
2:15 pm 14:15 Sunny 86 29.8 63 17 46 46 SW 6 9 29.94 1014 10 16 N/A
2:35 pm 14:35 Sunny 87 30.3 62 16.5 43 43 WSW 8 13 29.94 1014 10 16 N/A
2:55 pm 14:55 Partly Cloudy 85 29.3 61 16.2 45 45 SW 8 13 29.94 1014 10 16 N/A
3:15 pm 15:15 Cloudy 84 29.1 62 16.8 47 47 WSW 5 7 29.94 1014 10 16 N/A
3:35 pm 15:35 Mostly Cloudy 87 30.7 65 18.1 47 47 W 7 11 29.94 1014 10 16 N/A
3:55 pm 15:55 Partly Cloudy 89 31.8 67 19.2 47 47 W 7 11 29.94 1014 10 16 N/A
4:15 pm 16:15 Partly Cloudy 90 32.1 65 18.3 44 44 WNW 3 6 29.91 1013 10 16 N/A
4:35 pm 16:35 Partly Cloudy 85 29.3 62 16.4 46 46 WSW 5 7 29.91 1013 10 16 N/A
4:55 pm 16:55 Mostly Cloudy 85 29.3 63 17 47 47 WSW 6 9 29.91 1013 10 16 N/A
5:15 pm 17:15 Partly Cloudy 87 30.7 63 17.4 45 45 W 5 7 29.91 1013 10 16 N/A
5:35 pm 17:35 Partly Cloudy 85 29.3 62 16.5 46 46 W 6 9 29.91 1013 10 16 N/A
5:55 pm 17:55 Sunny 87 30.7 64 17.8 46 46 W 5 7 29.91 1013 N/A N/A
6:15 pm 18:15 Sunny 87 30.7 65 18.6 48 48 SW 6 9 29.91 1013 N/A N/A
6:35 pm 18:35 Sunny 85 29.3 64 17.6 49 49 WSW 6 9 29.88 1012 N/A N/A
6:55 pm 18:55 Sunny 83 28.6 65 18.6 55 55 W 3 6 29.88 1012 N/A N/A
7:35 pm 19:35 Sunny 83 28.6 65 18.6 55 55 N N/A 29.88 1012 10 16 N/A
7:55 pm 19:55 Sunny 82 28 68 19.8 61 61 N N/A 29.88 1012 N/A N/A
8:15 pm 20:15 Sunny 82 28 71 21.6 68 68 N N/A 29.88 1012 N/A N/A
8:35 pm 20:35 Sunny 80 26.8 70 21.2 71 71 N N/A 29.94 1014 N/A N/A
8:55 pm 20:55 Sunny 79 26.3 71 21.5 75 75 N N/A 29.94 1014 N/A N/A
9:15 pm 21:15 Clear 77 25.1 69 20.6 76 76 N N/A 29.94 1014 10 16 N/A
9:35 pm 21:35 Partly Cloudy 77 25.1 72 22 83 83 N N/A 29.94 1014 10 16 N/A
9:55 pm 21:55 Partly Cloudy 77 25.1 69 20.3 75 75 N N/A 29.94 1014 10 16 N/A
10:15 pm 22:15 Clear 74 23.6 69 20.6 83 83 N N/A 29.94 1014 10 16 N/A
10:35 pm 22:35 Clear 74 23.6 70 21 85 85 N N/A 29.97 1015 10 16 N/A
10:55 pm 22:55 Mostly Cloudy 74 23.6 70 21 85 85 N N/A 29.97 1015 10 16 N/A
11:15 pm 23:15 Partly Cloudy 74 23.6 70 20.9 85 85 N N/A 29.97 1015 10 16 N/A
11:35 pm 23:35 Partly Cloudy 74 23.6 70 21 85 85 N N/A 29.94 1014 10 16 N/A
11:55 pm 23:55 Partly Cloudy 74 23.6 70 21 85 85 N N/A 29.94 1014 10 16 N/A

Powered by AerisWeather